Location: Shannon
(40.5500°S, 175.4167°E)
Time: 22:21:22
(UTC+00:00)

Cosmos 1048 Rocket - Pass Details

Date: 17 November 2025
Orbit: 739 x 786 km, 74.0° (Epoch: 06 December)

Event Time Altitude Azimuth Distance (km) Brightness Sun altitude
Exits shadow 14:44:30 27° 2° (N) 1,470 5.1 -19.5°
Maximum altitude 14:47:21 64° 75° (ENE) 883 4.4 -19.2°
Drops below altitude 10° 14:52:41 10° 154° (SSE) 2,373 7.7 -18.5°
Sets 14:55:07 0° 157° (SSE) 3,305 8.6 -18.2°
